Location: Lecco
(45.8566°N, 9.3977°E)
Time: 08:14:50
(UTC+02:00)

Altair - Pass Details

Date: 15 August 2020
Orbit: 1501 x 1682 km, 47.2° (Epoch: 25 September)

Event Time Altitude Azimuth Distance (km) Brightness Sun altitude
Rises 09:09:33 0° 292° (WNW) 4,697 9.5 27.7°
Reaches altitude 10° 09:12:49 10° 286° (WNW) 3,693 9.0 28.3°
Maximum altitude 09:21:16 42° 220° (SW) 2,045 8.3 29.7°
Drops below altitude 10° 09:29:36 10° 154° (SSE) 3,645 10.1 31.1°
Sets 09:32:50 0° 147° (SSE) 4,630 10.6 31.7°
